Date String (YYYY-MM-DD hh:mm:ss) UTC,Instrument flags,Ambient pressure (hPa),Sample flow (lpm),Bypass flow (lpm),Sample temperature (°C),Ambient temperature (°C),ASC tube jacket temperature (°C),LED temperature (°C),Box temperature (°C),Sample RH (%),Span deviation,Mass concentration (μg/m³),Mass concentration (μg/m³),Mass concentration (μg/m³)
DateTimeUTC,F1_M11,P_M11,Q1_M11,Q2_M11,T1_M11,T2_M11,T3_M11,T4_M11,T5_M11,U1_M11,ZSPAN_M11,X0_M11,X2_M11,X1_M11
2021-11-20 22:00:00,,0827.7,4.99,0.00,26.3,25.5,00.0,35.4,28.0,15.8,0000.0,0019.34,0004.88,0003.44
2021-11-20 22:01:00,,0827.7,5.01,0.00,26.3,25.4,00.0,35.4,28.0,16.0,0000.0,0019.57,0004.75,0003.36
2021-11-20 22:02:00,,0827.7,4.99,0.00,26.2,25.4,00.0,35.4,28.0,16.2,0000.0,0018.80,0004.58,0003.26
2021-11-20 22:03:00,,0827.7,5.01,0.00,26.2,25.4,00.0,35.3,27.9,16.4,0000.0,0017.54,0004.38,0003.17
2021-11-20 22:04:00,,0827.8,5.00,0.00,26.2,25.3,00.0,35.3,27.9,16.7,0000.0,0016.01,0004.19,0003.02
2021-11-20 22:05:00,,0827.8,4.99,0.00,26.1,25.2,00.0,35.3,27.8,16.8,0000.0,0014.65,0003.99,0002.84
2021-11-20 22:06:00,,0827.8,5.02,0.00,26.1,25.1,00.0,35.3,27.7,16.9,0000.0,0013.63,0003.84,0002.69
2021-11-20 22:07:00,,0827.9,4.99,0.00,26.0,25.1,00.0,35.3,27.7,16.9,0000.0,0012.22,0003.75,0002.59
2021-11-20 22:08:00,,0827.9,5.00,0.00,26.0,25.0,00.0,35.2,27.6,16.8,0000.0,0011.33,0003.69,0002.52
2021-11-20 22:09:00,,0827.9,5.01,0.00,26.0,25.0,00.0,35.2,27.6,16.7,0000.0,0010.33,0003.68,0002.49
2021-11-20 22:10:00,,0827.9,5.00,0.00,25.9,25.0,00.0,35.2,27.6,16.7,0000.0,0010.07,0003.67,0002.49
2021-11-20 22:11:00,,0828.0,5.00,0.00,25.9,24.9,00.0,35.1,27.5,16.8,0000.0,0009.36,0003.68,0002.49
2021-11-20 22:12:00,,0828.0,5.00,0.00,25.8,24.9,00.0,35.1,27.5,16.8,0000.0,0008.69,0003.66,0002.49
2021-11-20 22:13:00,,0827.9,5.01,0.00,25.8,24.9,00.0,35.1,27.6,16.9,0000.0,0008.55,0003.66,0002.51
2021-11-20 22:14:00,,0828.0,5.00,0.00,25.8,24.9,00.0,35.1,27.6,16.9,0000.0,0008.34,0003.65,0002.54
2021-11-20 22:15:00,,0828.0,5.01,0.00,25.8,24.9,00.0,35.0,27.6,16.8,0000.0,0008.81,0003.71,0002.56
2021-11-20 22:16:00,,0828.0,5.00,0.00,25.8,25.0,00.0,35.0,27.6,16.7,0000.0,0009.57,0003.75,0002.59
2021-11-20 22:17:00,,0828.0,5.01,0.00,25.8,25.0,00.0,35.0,27.6,16.7,0000.0,0010.05,0003.81,0002.63
2021-11-20 22:18:00,,0828.0,4.99,0.00,25.8,25.0,00.0,35.0,27.6,16.7,0000.0,0010.27,0003.86,0002.66
2021-11-20 22:19:00,,0828.1,5.01,0.00,25.9,25.1,00.0,35.0,27.7,16.7,0000.0,0010.56,0003.89,0002.69
2021-11-20 22:20:00,,0828.1,4.99,0.00,25.9,25.1,00.0,35.0,27.7,16.7,0000.0,0011.06,0003.94,0002.70
2021-11-20 22:21:00,,0828.1,5.02,0.00,25.9,25.2,00.0,35.0,27.8,16.7,0000.0,0011.54,0003.95,0002.70
2021-11-20 22:22:00,,0828.1,4.99,0.00,25.9,25.2,00.0,35.0,27.7,16.5,0000.0,0011.49,0003.95,0002.74
2021-11-20 22:23:00,,0828.1,5.01,0.00,25.9,25.2,00.0,35.0,27.7,16.2,0000.0,0011.96,0004.03,0002.78
2021-11-20 22:24:00,,0828.1,4.98,0.00,25.9,25.2,00.0,35.0,27.7,16.1,0000.0,0012.14,0004.08,0002.84
2021-11-20 22:25:00,,0828.1,5.00,0.00,25.9,25.3,00.0,35.0,27.7,16.0,0000.0,0012.41,0004.16,0002.89
2021-11-20 22:26:00,,0828.1,5.01,0.00,25.9,25.2,00.0,35.0,27.8,16.0,0000.0,0012.75,0004.24,0002.96
2021-11-20 22:27:00,,0828.1,4.99,0.00,26.0,25.2,00.0,35.0,27.7,16.0,0000.0,0012.18,0004.30,0003.03
2021-11-20 22:28:00,,0828.1,5.02,0.00,26.0,25.2,00.0,35.0,27.7,16.1,0000.0,0011.85,0004.32,0003.06
2021-11-20 22:29:00,,0828.1,5.01,0.00,25.9,25.2,00.0,35.0,27.7,16.0,0000.0,0013.66,0004.31,0003.12
2021-11-20 22:30:00,,0828.1,4.98,0.00,26.0,25.2,00.0,35.0,27.7,15.9,0000.0,0014.49,0004.34,0003.15
2021-11-20 22:31:00,,0828.1,5.02,0.00,25.9,25.2,00.0,35.0,27.7,16.0,0000.0,0014.53,0004.40,0003.19
2021-11-20 22:32:00,,0828.1,4.99,0.00,25.9,25.2,00.0,35.0,27.7,16.1,0000.0,0014.08,0004.45,0003.23
2021-11-20 22:33:00,,0828.1,5.01,0.00,25.9,25.2,00.0,35.0,27.7,16.1,0000.0,0014.29,0004.46,0003.24
2021-11-20 22:34:00,,0828.2,5.00,0.00,25.9,25.1,00.0,35.0,27.7,16.1,0000.0,0013.71,0004.44,0003.24
2021-11-20 22:35:00,,0828.2,5.00,0.00,25.9,25.1,00.0,35.0,27.7,16.1,0000.0,0013.39,0004.43,0003.23
2021-11-20 22:36:00,,0828.2,5.01,0.00,25.9,25.1,00.0,34.9,27.7,16.1,0000.0,0013.11,0004.38,0003.22
2021-11-20 22:37:00,,0828.2,4.98,0.00,25.9,25.1,00.0,34.9,27.7,16.0,0000.0,0012.61,0004.35,0003.21
2021-11-20 22:38:00,,0828.2,5.01,0.00,25.9,25.1,00.0,34.9,27.7,16.1,0000.0,0012.41,0004.30,0003.21
2021-11-20 22:39:00,,0828.1,5.00,0.00,25.9,25.0,00.0,34.9,27.6,16.1,0000.0,0012.49,0004.29,0003.22
2021-11-20 22:40:00,,0828.2,4.99,0.00,25.8,24.9,00.0,34.9,27.6,16.1,0000.0,0010.62,0004.30,0003.20
2021-11-20 22:41:00,,0828.2,5.01,0.00,25.8,24.9,00.0,34.9,27.5,16.2,0000.0,0009.80,0004.36,0003.19
2021-11-20 22:42:00,,0828.2,4.99,0.00,25.8,24.9,00.0,34.9,27.5,16.2,0000.0,0010.22,0004.33,0003.18
2021-11-20 22:43:00,,0828.2,5.01,0.00,25.8,24.9,00.0,34.9,27.5,16.2,0000.0,0010.26,0004.30,0003.17
2021-11-20 22:44:00,,0828.3,4.99,0.00,25.7,24.8,00.0,34.9,27.5,16.3,0000.0,0010.54,0004.27,0003.16
2021-11-20 22:45:00,,0828.3,5.01,0.00,25.7,24.9,00.0,34.9,27.5,16.2,0000.0,0010.82,0004.27,0003.17
2021-11-20 22:46:00,,0828.3,4.99,0.00,25.7,24.9,00.0,34.9,27.5,16.2,0000.0,0010.69,0004.24,0003.16
2021-11-20 22:47:00,,0828.3,5.01,0.00,25.7,24.9,00.0,34.8,27.6,16.2,0000.0,0010.86,0004.24,0003.17
2021-11-20 22:48:00,,0828.4,4.99,0.00,25.8,25.0,00.0,34.8,27.6,16.3,0000.0,0010.80,0004.20,0003.16
2021-11-20 22:49:00,,0828.4,5.01,0.00,25.8,25.0,00.0,34.8,27.6,16.3,0000.0,0011.43,0004.18,0003.16
2021-11-20 22:50:00,,0828.5,5.01,0.00,25.8,25.1,00.0,34.8,27.7,16.2,0000.0,0011.31,0004.20,0003.16
2021-11-20 22:51:00,,0828.5,4.99,0.00,25.8,25.1,00.0,34.8,27.7,16.1,0000.0,0011.37,0004.20,0003.16
2021-11-20 22:52:00,,0828.5,5.00,0.00,25.8,25.2,00.0,34.8,27.7,16.1,0000.0,0011.79,0004.16,0003.16
2021-11-20 22:53:00,,0828.5,5.01,0.00,25.8,25.2,00.0,34.8,27.7,16.1,0000.0,0011.64,0004.14,0003.18
2021-11-20 22:54:00,,0828.5,4.99,0.00,25.9,25.2,00.0,34.8,27.7,16.1,0000.0,0011.96,0004.15,0003.18
2021-11-20 22:55:00,,0828.5,4.99,0.00,25.9,25.2,00.0,34.8,27.7,16.1,0000.0,0012.22,0004.15,0003.18
2021-11-20 22:56:00,,0828.5,5.01,0.00,25.9,25.2,00.0,34.9,27.7,16.1,0000.0,0013.11,0004.11,0003.18
2021-11-20 22:57:00,,0828.5,5.00,0.00,25.9,25.2,00.0,34.9,27.7,16.1,0000.0,0013.47,0004.17,0003.19
2021-11-20 22:58:00,,0828.5,4.99,0.00,25.9,25.2,00.0,34.9,27.7,16.1,0000.0,0013.50,0004.23,0003.20
2021-11-20 22:59:00,,0828.5,5.01,0.00,25.9,25.2,00.0,34.9,27.7,16.1,0000.0,0014.08,0004.23,0003.21
